KD4PYR Weather Reports


Display with metric or nautical units.
time (UTC)temp
F
wind
direction
speed
MPH
gust
MPH
rain 1hr
in
rain 24hr
in
rain mn
in
humidity
%
barometer
mb
20260905221832 89 292 2.0 8.0 0.00 0.00 0.00 60 1012.9
20260905220821 89 306 5.0 8.0 0.00 0.00 0.00 59 1012.8
20260905215826 89 342 4.0 9.0 0.00 0.00 0.00 60 1012.7
20260905214846 89 325 3.0 4.0 0.00 0.00 0.00 60 1012.6
20260905213845 89 317 2.0 8.0 0.00 0.00 0.00 60 1012.5
20260905212816 89 310 4.0 8.0 0.00 0.00 0.00 59 1012.6
20260905211855 90 290 5.0 10.0 0.00 0.00 0.00 58 1012.6
20260905210827 91 346 5.0 12.0 0.00 0.00 0.00 56 1012.7
20260905205829 91 296 1.0 4.0 0.00 0.00 0.00 56 1012.7
20260905204830 91 296 5.0 12.0 0.00 0.00 0.00 55 1012.9
20260905203821 91 350 4.0 11.0 0.00 0.00 0.00 55 1012.8
20260905202838 91 296 5.0 11.0 0.00 0.00 0.00 58 1012.8
20260905201835 91 310 4.0 11.0 0.00 0.00 0.00 55 1013.1
20260905200825 91 297 3.0 6.0 0.00 0.00 0.00 55 1013.1
20260905195829 91 240 2.0 5.0 0.00 0.00 0.00 55 1013.2
20260905194831 91 309 4.0 10.0 0.00 0.00 0.00 54 1013.4
20260905193851 92 287 3.0 8.0 0.00 0.00 0.00 55 1013.5
20260905192821 91 165 3.0 11.0 0.00 0.00 0.00 54 1013.7
20260905191841 92 315 3.0 6.0 0.00 0.00 0.00 53 1013.8
20260905190830 92 158 2.0 5.0 0.00 0.00 0.00 53 1014.0
20260905185833 92 167 3.0 8.0 0.00 0.00 0.00 55 1014.2
20260905184818 91 141 1.0 7.0 0.00 0.00 0.00 55 1014.4
20260905183835 90 360 1.0 6.0 0.00 0.00 0.00 55 1014.4
20260905182826 90 161 2.0 7.0 0.00 0.00 0.00 56 1014.5
20260905181816 89 157 2.0 9.0 0.00 0.00 0.00 58 1014.6
20260905180831 88 313 1.0 7.0 0.00 0.00 0.00 58 1014.5
20260905175834 88 171 4.0 6.0 0.00 0.00 0.00 59 1014.5
20260905174836 87 160 5.0 8.0 0.00 0.00 0.00 59 1014.5
20260905173829 87 192 2.0 8.0 0.00 0.00 0.00 60 1014.6
20260905172823 88 145 4.0 6.0 0.00 0.00 0.00 57 1014.7
20260905171816 88 163 3.0 7.0 0.00 0.00 0.00 56 1014.8
20260905170834 88 186 3.0 5.0 0.00 0.00 0.00 57 1014.9
20260905165820 87 275 3.0 6.0 0.00 0.00 0.00 59 1015.1
20260905164823 86 171 1.0 7.0 0.00 0.00 0.00 59 1015.4
20260905163901 85 165 3.0 7.0 0.00 0.00 0.00 59 1015.4
20260905162833 85 218 1.0 5.0 0.00 0.00 0.00 60 1015.5
20260905161825 84 232 2.0 6.0 0.00 0.00 0.00 60 1015.5
20260905160817 83 178 1.0 4.0 0.00 0.00 0.00 62 1015.4
20260905155841 82 178 2.0 5.0 0.00 0.00 0.00 61 1015.3
20260905154825 81 180 2.0 4.0 0.00 0.00 0.00 64 1015.4
20260905153818 81 186 1.0 5.0 0.00 0.00 0.00 63 1015.5
20260905152837 80 184 1.0 3.0 0.00 0.00 0.00 67 1015.6
20260905151830 80 186 2.0 7.0 0.00 0.00 0.00 66 1015.5
20260905150821 79 69 0.0 4.0 0.00 0.00 0.00 67 1015.6
20260905145844 79 179 4.0 7.0 0.00 0.00 0.00 67 1015.3
20260905144844 78 75 2.0 5.0 0.00 0.00 0.00 68 1015.3
20260905143817 78 105 1.0 3.0 0.00 0.00 0.00 69 1015.5
20260905142834 77 145 0.0 3.0 0.00 0.00 0.00 70 1015.4
20260905141826 76 133 1.0 4.0 0.00 0.00 0.00 72 1015.5
20260905140817 75 171 1.0 3.0 0.00 0.00 0.00 74 1015.8
20260905135822 74 77 1.0 4.0 0.00 0.00 0.00 75 1016.0
20260905134825 73 117 0.0 2.0 0.00 0.00 0.00 77 1016.5
20260905133819 72 116 0.0 2.0 0.00 0.00 0.00 77 1016.8
20260905132838 72 117 0.0 2.0 0.00 0.00 0.00 77 1017.1
20260905131837 72 117 0.0 3.0 0.00 0.00 0.00 77 1017.1
20260905130829 71 150 0.0 5.0 0.00 0.00 0.00 78 1017.4
20260905125833 71 146 1.0 6.0 0.00 0.00 0.00 78 1017.8
20260905124838 71 180 1.0 5.0 0.00 0.00 0.00 78 1017.7
20260905123830 71 181 2.0 5.0 0.00 0.00 0.00 77 1017.6
20260905122821 71 67 1.0 3.0 0.00 0.00 0.00 77 1017.4
20260905121840 71 67 0.0 4.0 0.00 0.00 0.00 76 1017.3
20260905120828 71 67 1.0 8.0 0.00 0.00 0.00 76 1017.0
20260905115816 71 70 2.0 6.0 0.00 0.00 0.00 76 1016.9
20260905114817 71 74 2.0 10.0 0.00 0.00 0.00 76 1016.6
20260905113838 71 76 2.0 5.0 0.00 0.00 0.00 76 1016.5
20260905112851 71 68 1.0 5.0 0.00 0.00 0.00 75 1016.7
20260905111825 71 78 3.0 9.0 0.00 0.00 0.00 75 1016.7
20260905110817 72 16 4.0 12.0 0.00 0.00 0.00 75 1017.2
20260905105818 73 13 5.0 14.0 0.00 0.00 0.00 75 1017.4
20260905104841 73 300 5.0 19.0 0.00 0.00 0.00 75 1017.4
20260905103832 73 331 8.0 20.0 0.00 0.00 0.00 79 1016.6
20260905102853 74 350 0.0 2.0 0.00 0.00 0.00 80 1014.7
20260905101852 73 350 0.0 2.0 0.00 0.00 0.00 81 1014.8
20260905100821 73 350 0.0 0.0 0.00 0.00 0.00 81 1014.8
20260905095822 73 350 0.0 1.0 0.00 0.00 0.00 81 1014.9
20260905094847 73 350 0.0 0.0 0.00 0.00 0.00 80 1015.0
20260905093845 74 350 0.0 0.0 0.00 0.00 0.00 80 1015.0
20260905092816 74 350 0.0 0.0 0.00 0.00 0.00 80 1014.6
20260905091837 74 350 0.0 0.0 0.00 0.00 0.00 80 1014.5
20260905090827 74 350 0.0 0.0 0.00 0.00 0.00 80 1014.5
20260905085830 75 350 0.0 0.0 0.00 0.00 0.00 80 1014.6
20260905084830 75 350 0.0 0.0 0.00 0.00 0.00 79 1014.7
20260905083821 75 350 0.0 0.0 0.00 0.00 0.00 79 1014.7
20260905082841 75 350 0.0 2.0 0.00 0.00 0.00 79 1014.6
20260905081834 75 350 0.0 3.0 0.00 0.00 0.00 79 1014.4
20260905080852 75 350 1.0 3.0 0.00 0.00 0.00 79 1014.3
20260905075834 75 350 2.0 3.0 0.00 0.00 0.00 79 1014.1
20260905074819 75 350 1.0 2.0 0.00 0.00 0.00 79 1014.1
20260905073837 75 350 2.0 3.0 0.00 0.00 0.00 79 1014.1
20260905072829 75 350 0.0 2.0 0.00 0.00 0.00 79 1014.2
20260905071823 75 350 0.0 3.0 0.00 0.00 0.00 79 1014.1
20260905070815 75 350 1.0 3.0 0.00 0.00 0.00 79 1014.2
20260905065837 76 350 2.0 4.0 0.00 0.00 0.00 78 1014.3
20260905064838 76 350 1.0 3.0 0.00 0.00 0.00 78 1014.5
20260905063830 76 350 2.0 3.0 0.00 0.00 0.00 78 1014.5
20260905062823 76 350 2.0 4.0 0.00 0.00 0.00 77 1014.7
20260905061842 76 351 1.0 3.0 0.00 0.00 0.00 77 1014.9
20260905060831 76 355 2.0 4.0 0.00 0.00 0.00 77 1014.9
20260905055833 76 355 2.0 4.0 0.00 0.00 0.00 77 1015.0
20260905054853 76 355 2.0 4.0 0.00 0.00 0.00 77 1015.2
20260905053851 75 360 2.0 4.0 0.00 0.00 0.00 78 1015.3
20260905052821 74 360 0.0 0.0 0.00 0.00 0.00 79 1015.4
20260905051838 74 360 0.0 0.0 0.00 0.00 0.00 80 1015.5
20260905050834 74 360 0.0 0.0 0.00 0.00 0.00 79 1015.6
20260905045818 74 360 0.0 0.0 0.00 0.00 0.00 80 1015.7
20260905044821 74 360 0.0 0.0 0.00 0.00 0.00 79 1015.7
20260905043841 75 360 0.0 0.0 0.00 0.00 0.00 80 1015.7
20260905042832 75 360 0.0 0.0 0.00 0.00 0.00 80 1015.8
20260905041827 75 360 0.0 0.0 0.00 0.00 0.00 79 1015.7
20260905040822 75 360 0.0 0.0 0.00 0.00 0.00 79 1015.7
20260905035827 75 360 0.0 0.0 0.00 0.00 0.00 79 1015.8
20260905034831 75 360 0.0 0.0 0.00 0.00 0.00 79 1015.7
20260905033821 75 360 0.0 0.0 0.00 0.00 0.00 79 1015.6
20260905032838 75 360 0.0 0.0 0.00 0.00 0.00 79 1015.6
20260905031832 76 360 0.0 0.0 0.00 0.00 0.00 79 1015.7
20260905030824 76 360 0.0 0.0 0.00 0.00 0.00 79 1015.6
20260905025830 76 360 0.0 0.0 0.00 0.00 0.00 79 1015.6
20260905024858 76 360 0.0 0.0 0.00 0.00 0.00 78 1015.6
20260905023832 77 360 0.0 0.0 0.00 0.00 0.00 79 1015.6
20260905022851 77 360 0.0 0.0 0.00 0.00 0.00 78 1015.6
20260905021850 77 360 0.0 0.0 0.00 0.00 0.00 78 1015.6
20260905020820 77 360 0.0 0.0 0.00 0.00 0.00 78 1015.6
20260905015826 77 360 0.0 1.0 0.00 0.00 0.00 78 1015.5
20260905014829 77 360 0.0 2.0 0.00 0.00 0.00 78 1015.5
20260905013822 78 360 0.0 0.0 0.00 0.00 0.00 78 1015.4
20260905012840 78 360 0.0 0.0 0.00 0.00 0.00 78 1015.4
20260905011832 79 360 0.0 0.0 0.00 0.00 0.00 77 1015.4
20260905010824 79 360 0.0 0.0 0.00 0.00 0.00 77 1015.3
20260905005829 80 360 0.0 0.0 0.00 0.00 0.00 75 1015.3
20260905004829 81 360 0.0 0.0 0.00 0.00 0.00 74 1015.3
20260905003823 81 360 0.0 0.0 0.00 0.00 0.00 73 1015.1
20260905002900 82 360 0.0 0.0 0.00 0.00 0.00 72 1015.2
20260905001830 82 360 0.0 3.0 0.00 0.00 0.00 71 1015.0
20260905000820 82 360 1.0 3.0 0.00 0.00 0.00 72 1015.1
20260904235844 83 360 1.0 3.0 0.00 0.00 0.00 71 1015.0
20260904234827 83 360 0.0 2.0 0.00 0.00 0.00 70 1014.9
20260904233819 84 360 0.0 2.0 0.00 0.00 0.00 68 1014.9
20260904232838 84 360 0.0 0.0 0.00 0.00 0.00 69 1014.7
20260904231836 85 360 0.0 0.0 0.00 0.00 0.00 68 1014.6
20260904230827 85 360 0.0 3.0 0.00 0.00 0.00 65 1014.5
20260904225832 84 360 0.0 2.0 0.00 0.00 0.00 67 1014.4
20260904224834 84 360 1.0 3.0 0.00 0.00 0.00 67 1014.4
20260904223826 84 360 1.0 3.0 0.00 0.00 0.00 68 1014.6
20260904222818 84 360 2.0 2.0 0.00 0.00 0.00 67 1014.8